When you browse on this site, cookies collect data to enhance your experience and personalize the content and advertising you see.
Visit our Privacy Policy to learn more. By continuing to use the site, you agree to this use of cookies and data.
  • en France
  • Liste des pays
  • À 7 jours
  • Température de l'eau
  • Carte satellitaire
  • Carte météo
  • Widgets météo
  • user-avatar
    Se connecter

    Météo par heure à Etchmiadzin

    Ce jour, 19 Février, Mardi

    Heure Température Précipitation Vent Pression Humidité
    00:00 +2°C° 0 mm 2 m/s 682 mmHg 53%
    01:00 +1°C° 0 mm 2 m/s 682 mmHg 54%
    02:00 +1°C° 0 mm 2 m/s 682 mmHg 55%
    03:00 -1°C° 0 mm 2 m/s 682 mmHg 58%
    04:00 -1°C° 0 mm 2 m/s 682 mmHg 58%
    05:00 -1°C° 0 mm 2 m/s 682 mmHg 59%
    06:00 -2°C° 0 mm 2 m/s 683 mmHg 59%
    07:00 -1°C° 0 mm 2 m/s 683 mmHg 56%
    08:00 +1°C° 0 mm 2 m/s 684 mmHg 53%
    09:00 +2°C° 0 mm 2 m/s 684 mmHg 49%
    10:00 +3°C° 0 mm 3 m/s 684 mmHg 44%
    11:00 +4°C° 0 mm 4 m/s 684 mmHg 39%
    12:00 +5°C° 0 mm 5 m/s 685 mmHg 34%
    13:00 +6°C° 0 mm 5 m/s 685 mmHg 33%
    14:00 +6°C° 0 mm 5 m/s 685 mmHg 32%
    15:00 +6°C° 0 mm 5 m/s 685 mmHg 31%
    16:00 +5°C° 0 mm 4 m/s 686 mmHg 34%
    17:00 +4°C° 0 mm 3 m/s 686 mmHg 37%
    18:00 +3°C° 0 mm 3 m/s 687 mmHg 39%
    19:00 +3°C° 0 mm 2 m/s 688 mmHg 41%
    20:00 +2°C° 0 mm 2 m/s 688 mmHg 42%
    21:00 +1°C° 0 mm 2 m/s 689 mmHg 44%
    22:00 +1°C° 0 mm 2 m/s 689 mmHg 44%
    23:00 -1°C° 0 mm 2 m/s 689 mmHg 44%

    Demain, 20 Février, Mercredi

    Heure Température Précipitation Vent Pression Humidité
    00:00 -1°C° 0 mm 2 m/s 690 mmHg 43%
    01:00 -1°C° 0 mm 2 m/s 690 mmHg 43%
    02:00 -2°C° 0 mm 2 m/s 690 mmHg 43%
    03:00 0°C° 0 mm 1 m/s 690 mmHg 43%
    04:00 0°C° 0 mm 1 m/s 690 mmHg 43%
    05:00 -2°C° 0 mm 2 m/s 690 mmHg 42%
    06:00 -2°C° 0 mm 2 m/s 690 mmHg 42%
    07:00 +1°C° 0 mm 1 m/s 690 mmHg 40%
    08:00 +2°C° 0 mm 1 m/s 690 mmHg 38%
    09:00 +4°C° 0 mm 1 m/s 691 mmHg 36%
    10:00 +5°C° 0 mm 1 m/s 690 mmHg 34%
    11:00 +5°C° 0 mm 2 m/s 690 mmHg 32%
    12:00 +6°C° 0 mm 2 m/s 690 mmHg 31%
    13:00 +6°C° 0 mm 2 m/s 689 mmHg 30%
    14:00 +7°C° 0 mm 2 m/s 689 mmHg 29%
    15:00 +7°C° 0 mm 2 m/s 689 mmHg 28%
    16:00 +6°C° 0 mm 2 m/s 689 mmHg 29%
    17:00 +5°C° 0 mm 2 m/s 689 mmHg 30%
    18:00 +4°C° 0 mm 2 m/s 689 mmHg 32%
    19:00 +3°C° 0 mm 2 m/s 689 mmHg 32%
    20:00 +3°C° 0 mm 2 m/s 690 mmHg 32%
    21:00 +2°C° 0 mm 2 m/s 690 mmHg 32%
    22:00 +2°C° 0 mm 2 m/s 690 mmHg 33%
    23:00 +2°C° 0 mm 1 m/s 690 mmHg 34%

    Après-demain, 21 Février, Jeudi

    Heure Température Précipitation Vent Pression Humidité
    00:00 +2°C° 0 mm 1 m/s 690 mmHg 34%
    01:00 +2°C° 0 mm 1 m/s 689 mmHg 36%
    02:00 +1°C° 0 mm 1 m/s 689 mmHg 38%
    03:00 +1°C° 0 mm 1 m/s 689 mmHg 40%
    04:00 +1°C° 0 mm 1 m/s 689 mmHg 41%
    05:00 0°C° 0 mm 1 m/s 689 mmHg 42%
    06:00 0°C° 0 mm 1 m/s 688 mmHg 43%
    07:00 +1°C° 0 mm 1 m/s 689 mmHg 39%
    08:00 +2°C° 0 mm 1 m/s 689 mmHg 36%
    09:00 +4°C° 0 mm 1 m/s 689 mmHg 33%
    10:00 +5°C° 0 mm 1 m/s 688 mmHg 31%
    11:00 +6°C° 0 mm 1 m/s 688 mmHg 29%
    12:00 +7°C° 0 mm 1 m/s 687 mmHg 28%
    13:00 +7°C° 0 mm 1 m/s 687 mmHg 28%
    14:00 +7°C° 0 mm 1 m/s 686 mmHg 28%
    15:00 +8°C° 0 mm 1 m/s 686 mmHg 28%
    16:00 +7°C° 0 mm 1 m/s 686 mmHg 30%
    17:00 +6°C° 0 mm 1 m/s 687 mmHg 31%
    18:00 +5°C° 0 mm 1 m/s 687 mmHg 33%
    19:00 +5°C° 0 mm 1 m/s 688 mmHg 34%
    20:00 +4°C° 0 mm 1 m/s 688 mmHg 35%
    21:00 +3°C° 0 mm 1 m/s 689 mmHg 36%
    22:00 +3°C° 0 mm 1 m/s 689 mmHg 38%
    23:00 +2°C° 0 mm 1 m/s 689 mmHg 40%

    22 Février, Vendredi

    Heure Température Précipitation Vent Pression Humidité
    00:00 +2°C° 0 mm 1 m/s 689 mmHg 43%
    01:00 +1°C° 0 mm 1 m/s 689 mmHg 44%
    02:00 +1°C° 0 mm 1 m/s 688 mmHg 45%
    03:00 +1°C° 0 mm 1 m/s 688 mmHg 46%
    04:00 0°C° 0 mm 1 m/s 688 mmHg 47%
    05:00 0°C° 0 mm 1 m/s 688 mmHg 47%
    06:00 0°C° 0 mm 1 m/s 688 mmHg 48%
    07:00 +1°C° 0 mm 1 m/s 688 mmHg 45%
    08:00 +2°C° 0 mm 1 m/s 688 mmHg 42%
    09:00 +3°C° 0 mm 1 m/s 688 mmHg 40%
    10:00 +4°C° 0 mm 1 m/s 688 mmHg 39%
    11:00 +5°C° 0 mm 1 m/s 687 mmHg 38%
    12:00 +5°C° 0 mm 2 m/s 687 mmHg 36%
    13:00 +5°C° 0 mm 2 m/s 686 mmHg 36%
    14:00 +5°C° 0 mm 2 m/s 686 mmHg 36%
    15:00 +6°C° 0 mm 2 m/s 686 mmHg 36%
    16:00 +5°C° 0 mm 2 m/s 686 mmHg 37%
    17:00 +4°C° 0 mm 2 m/s 686 mmHg 38%
    18:00 +3°C° 0 mm 2 m/s 686 mmHg 40%
    19:00 +3°C° 0 mm 2 m/s 687 mmHg 41%
    20:00 +2°C° 0 mm 2 m/s 687 mmHg 43%
    21:00 +2°C° 0 mm 2 m/s 688 mmHg 44%
    22:00 +1°C° 0 mm 2 m/s 688 mmHg 46%
    23:00 +1°C° 0 mm 2 m/s 688 mmHg 49%

    23 Février, Samedi

    Heure Température Précipitation Vent Pression Humidité
    00:00 +1°C° 0 mm 2 m/s 688 mmHg 51%
    01:00 -1°C° 0 mm 2 m/s 688 mmHg 52%
    02:00 -1°C° 0 mm 2 m/s 688 mmHg 54%
    03:00 -1°C° 0 mm 2 m/s 688 mmHg 55%
    04:00 -1°C° 0 mm 2 m/s 688 mmHg 55%
    05:00 -2°C° 0 mm 2 m/s 688 mmHg 56%
    06:00 -2°C° 0 mm 2 m/s 687 mmHg 56%
    07:00 -1°C° 0 mm 2 m/s 688 mmHg 54%
    08:00 +1°C° 0 mm 2 m/s 688 mmHg 52%
    09:00 +2°C° 0 mm 3 m/s 688 mmHg 50%
    10:00 +3°C° 0 mm 3 m/s 687 mmHg 48%
    11:00 +4°C° 0 mm 3 m/s 687 mmHg 46%
    12:00 +5°C° 0 mm 3 m/s 686 mmHg 44%
    13:00 +5°C° 0 mm 3 m/s 686 mmHg 43%
    14:00 +7°C° 0 mm 3 m/s 686 mmHg 42%
    15:00 +7°C° 0 mm 3 m/s 685 mmHg 41%
    16:00 +5°C° 0 mm 3 m/s 686 mmHg 42%
    17:00 +5°C° 0 mm 3 m/s 686 mmHg 43%
    18:00 +4°C° 0 mm 3 m/s 686 mmHg 44%
    19:00 +3°C° 0 mm 3 m/s 686 mmHg 45%
    20:00 +4°C° 0 mm 2 m/s 687 mmHg 46%
    21:00 +3°C° 0 mm 2 m/s 687 mmHg 47%
    22:00 +3°C° 0 mm 2 m/s 687 mmHg 49%
    23:00 +3°C° 0 mm 2 m/s 687 mmHg 50%

    24 Février, Dimanche

    Heure Température Précipitation Vent Pression Humidité
    00:00 +3°C° 0 mm 2 m/s 687 mmHg 52%
    01:00 +3°C° 0 mm 2 m/s 687 mmHg 53%
    02:00 +2°C° 0 mm 2 m/s 687 mmHg 54%
    03:00 +2°C° 0 mm 2 m/s 687 mmHg 55%
    04:00 +2°C° 0 mm 2 m/s 687 mmHg 56%
    05:00 +2°C° 0 mm 2 m/s 687 mmHg 57%
    06:00 +2°C° 0 mm 2 m/s 687 mmHg 58%
    07:00 +3°C° 0 mm 2 m/s 687 mmHg 55%
    08:00 +4°C° 0 mm 2 m/s 688 mmHg 51%
    09:00 +5°C° 0 mm 2 m/s 688 mmHg 48%
    10:00 +6°C° 0 mm 2 m/s 688 mmHg 46%
    11:00 +7°C° 0 mm 3 m/s 688 mmHg 44%
    12:00 +8°C° 0 mm 3 m/s 687 mmHg 41%
    13:00 +9°C° 0 mm 3 m/s 687 mmHg 40%
    14:00 +9°C° 0 mm 3 m/s 687 mmHg 40%
    15:00 +10°C° 0 mm 3 m/s 687 mmHg 39%
    16:00 +9°C° 0 mm 3 m/s 687 mmHg 40%
    17:00 +8°C° 0 mm 3 m/s 687 mmHg 40%
    18:00 +7°C° 0 mm 3 m/s 688 mmHg 41%
    19:00 +7°C° 0 mm 3 m/s 688 mmHg 43%
    20:00 +6°C° 0 mm 2 m/s 688 mmHg 44%
    21:00 +6°C° 0 mm 2 m/s 689 mmHg 45%
    22:00 +5°C° 0 mm 2 m/s 689 mmHg 47%
    23:00 +5°C° 0 mm 2 m/s 689 mmHg 49%
    Voir plus